Regional Weather Roundup
Issued by NWS

Home | Current Version | Previous Version | Text Only | Print | Product List | Glossary On
Versions: 1 2 3 4 5 6 7 8 9 10 11 12 13 14 15 16 17 18 19 20 21 22 23 24 25 26 27 28 29 30 31 32 33 34 35 36 37 38 39 40 41 42 43 44 45 46 47 48 49 50
198
ASUS44 KJAN 212203
RWRMS

MISSISSIPPI HOURLY WEATHER ROUNDUP
NATIONAL WEATHER SERVICE JACKSON MS
400 PM CST FRI NOV 21 2014

NOTE: "FAIR: INDICATES FEW OR NO CLOUDS BELOW 12,000 FEET WITH NO
SIGNIFICANT WEATHER AND/OR OBSTRUCTIONS TO VISIBILITY.

MSZ001>002-007>008-010>013-018>021-025>028-034>036-212300-
NORTHWEST MISSISSIPPI

CITY           SKY/WX    TMP DP  RH WIND       PRES   REMARKS
CLARKSDALE     CLOUDY    64  50  59 CALM      30.27R
CLEVELAND      CLOUDY    67  51  56 S8        30.24R
GREENWOOD      MOCLDY    68  45  43 SE10      30.25R
GREENVILLE     CLOUDY    67  47  48 SE8       30.22S
GRENADA        CLOUDY    63  48  59 CALM      30.27S
OLIVE BRANCH   CLOUDY    54  43  66 CALM      30.30R
OXFORD         FAIR      59  46  63 SE6       30.30R
TUNICA         CLOUDY    55  48  76 NE7       30.28S
$$

MSZ003>006-009-014>017-022>024-029>033-037>039-212300-
NORTHEAST MISSISSIPPI

CITY           SKY/WX    TMP DP  RH WIND       PRES   REMARKS
COLUMBUS AFB   MOCLDY    66  46  48 SE8       30.30R
CORINTH        CLOUDY    59  36  41 E5        30.30S
GOLDN TRIANGLE PTCLDY    64  46  52 S7        30.29R
STARKVILLE     FAIR      63  46  55 SE6       30.29S
TUPELO         MOCLDY    63  45  51 SE7       30.30R
$$

MSZ040-058-212300-
CENTRAL MISSISSIPPI

CITY           SKY/WX    TMP DP  RH WIND       PRES   REMARKS
JACKSON INTL   MOCLDY    67  44  43 SE10      30.26R
JACKSON HAWKNS CLOUDY    67  44  43 SE10      30.26R
MERIDIAN KEY   CLEAR     67  43  41 SE7       30.29R
MERIDIAN NAS   CLEAR     67  44  43 SE9       30.30R
RAYMOND        FAIR      68  63  83 SE10      30.25R
VICKSBURG      CLOUDY    67  47  48 SE12      30.23S
$$

MSZ059>079-212300-
SOUTH MISSISSIPPI

CITY           SKY/WX    TMP DP  RH WIND       PRES   REMARKS
BROOKHAVEN     FAIR      68  45  42 SE7       30.26R
HATTIESBURG    CLEAR     69  42  37 SE9       30.27R
MCCOMB         MOSUNNY   69  44  40 SE10      30.24R
NATCHEZ        MOSUNNY   68  46  45 SE13      30.24R
PINE BELT      CLEAR     68  43  40 E9        30.28R
$$

MSZ080>082-212300-
COASTAL MISSISSIPPI

CITY           SKY/WX    TMP DP  RH WIND       PRES   REMARKS
BAY ST LOUIS   SUNNY     64  43  45 SE9       30.27R
BILOXI         SUNNY     64  45  49 SE9       30.27R
PASCAGOULA     CLEAR     64  43  46 SE12      30.27S
GULFPORT       SUNNY     63  43  48 SE17      30.27R
$$



USA.gov is the U.S. government's official web portal to all federal, state and local government web resources and services.